Date,TemperatureHighF,TemperatureAvgF,TemperatureLowF,DewpointHighF,DewpointAvgF,DewpointLowF,HumidityHigh,HumidityAvg,HumidityLow,PressureMaxIn,PressureMinIn,WindSpeedMaxMPH,WindSpeedAvgMPH,GustSpeedMaxMPH,PrecipitationSumIn
2013-4-1,89,71,69,66,65,60,89,82,40,29.94,29.82,4,0,10,0.00
2013-4-2,78,68,59,69,64,56,94,86,64,29.95,29.75,15,0,25,0.54
2013-4-3,59,53,49,56,51,46,96,94,90,30.09,29.73,8,2,13,0.45
2013-4-4,66,54,47,46,44,42,90,73,47,30.19,30.05,9,2,15,0.00
2013-4-5,76,56,38,51,44,36,95,69,37,30.24,30.02,3,0,6,0.00
2013-4-6,86,67,50,59,55,46,92,69,40,30.04,29.79,8,1,12,0.00
2013-4-7,90,71,60,66,61,57,92,74,44,29.86,29.69,4,0,12,0.00
2013-4-8,76,70,67,68,65,62,90,84,74,29.77,29.61,7,0,10,0.00
2013-4-9,92,76,70,71,68,65,88,77,47,29.66,29.50,7,0,12,0.00
2013-4-10,74,60,46,69,54,43,93,81,65,29.88,29.57,11,2,22,0.27
2013-4-11,74,56,45,45,42,37,89,61,34,29.94,29.75,6,1,10,0.01
2013-4-12,86,62,42,51,45,39,94,60,24,29.97,29.79,4,0,7,0.00
2013-4-13,80,64,48,60,52,45,96,68,41,29.92,29.70,7,0,8,0.00
2013-4-14,91,71,55,69,61,52,94,73,41,29.77,29.54,7,0,12,0.00
2013-4-15,94,78,69,69,66,63,90,69,41,29.74,29.62,6,0,9,0.00
2013-4-16,87,76,66,70,67,61,91,75,55,29.82,29.71,6,0,10,0.00
2013-4-17,83,76,72,72,70,69,94,85,64,29.81,29.59,6,0,12,0.00
2013-4-18,75,64,51,71,55,37,92,75,47,30.00,29.58,9,2,14,0.27
2013-4-19,72,56,39,38,33,26,86,47,19,30.26,30.01,10,1,14,0.00
2013-4-20,79,57,35,48,36,30,89,53,18,30.20,29.94,5,0,10,0.00
2013-4-21,83,66,52,59,53,47,84,65,40,30.09,29.93,7,0,8,0.00
2013-4-22,88,72,59,63,60,56,93,69,41,30.06,29.80,5,1,10,0.00
2013-4-23,78,66,54,67,59,44,87,80,56,30.01,29.79,8,0,9,0.00
2013-4-24,62,54,46,44,39,36,76,58,42,30.22,30.02,9,2,12,0.00
2013-4-25,69,61,56,48,44,41,63,53,40,30.28,30.13,7,1,10,0.00
2013-4-26,78,70,60,70,63,47,95,79,57,30.15,29.96,6,0,10,0.00
2013-4-27,77,77,67,68,68,64,92,75,74,29.97,29.93,3,0,4,0.11
2013-4-28,88,73,58,66,62,56,96,74,43,29.96,29.79,5,0,8,0.01
2013-4-29,89,72,63,67,64,60,95,78,46,29.87,29.69,6,0,12,0.06
2013-4-30,88,72,64,68,65,62,96,80,49,29.77,29.65,3,0,7,0.01